Weather History for Ireland West Airport Knock, Ireland

Change the Weather History Date:

Wednesday, December 5, 2012

  Actual Average Record
Temperature  
Mean Temperature 36 °F -  
Max Temperature 40 °F - - ()
Min Temperature 33 °F - - ()
Degree Days  
Heating Degree Days 29    
Moisture  
Dew Point 33 °F    
Average Humidity 88    
Maximum Humidity 93    
Minimum Humidity 76    
Precipitation  
Precipitation 0.00 in - - ()
Sea Level Pressure  
Sea Level Pressure 29.99 in    
Wind  
Wind Speed 7 mph ()    
Max Wind Speed 13 mph    
Max Gust Speed -    
Visibility 6.8 miles    
Events Rain    
T = Trace of Precipitation, MM = Missing Value Source: Averaged Metar Reports

Daily Weather History Graph

Daily Weather History Graph

Search for Another Location

Airport:

Trip Planner

Search our weather history database for the weather conditions in past years. The results will help you decide how hot, cold, wet, or windy it might be!

Date:

Astronomy

Dec. 05, 2012 Rise Set
Actual Time 8:36 AM GMT 4:15 PM GMT
Civil Twilight 7:53 AM GMT 4:57 PM GMT
Nautical Twilight 7:08 AM GMT 5:43 PM GMT
Astronomical Twilight 6:25 AM GMT 6:26 PM GMT
Moon 11:35 PM GMT (12/5) 12:13 PM GMT (12/5)
Length of Visible Light 9h 04m
Length of Day
7h 38m
Waning Gibbous, 62% of the Moon is Illuminated
Dec 5
Waning Gibbous
Dec 6
Last Quarter
Dec 13
New
Dec 20
First Quarter
Dec 28
Full

Hourly Weather History & Observations

Time (GMT) Temp. Windchill Dew Point Humidity Pressure Visibility Wind Dir Wind Speed Gust Speed Precip Events Conditions
12:00 AM 37 °F - 34 °F 85% 29.84 in - North 6.7 mph - -  
6:00 AM 35 °F - 30 °F 76% 29.97 in 17 mi NNW 8.9 mph - -   Partly Cloudy
6:00 AM 35.6 °F 29.2 °F 30.2 °F 81% 29.92 in 6.2 mi NNW 8.1 mph - N/A   Scattered Clouds
7:00 AM 35.6 °F 28.6 °F 32.0 °F 87% 29.95 in 6.2 mi NNW 9.2 mph - N/A   Partly Cloudy
8:00 AM 33.8 °F 27.7 °F 32.0 °F 93% 29.98 in 5.6 mi NW 6.9 mph - N/A Rain Light Rain Showers
8:30 AM 33.8 °F 24.8 °F 32.0 °F 93% 29.98 in 6.2 mi WNW 12.7 mph - N/A   Partly Cloudy
9:30 AM 33.8 °F 27.0 °F 32.0 °F 93% 29.98 in 6.2 mi NW 8.1 mph - N/A   Partly Cloudy
10:00 AM 35.6 °F 28.6 °F 32.0 °F 87% 29.98 in 6.2 mi NNW 9.2 mph - N/A   Partly Cloudy
10:30 AM 37.4 °F 30.3 °F 32.0 °F 81% 29.98 in 6.2 mi NW 10.4 mph - N/A   Partly Cloudy
11:00 AM 35.6 °F 29.9 °F 33.8 °F 93% 30.01 in 6.2 mi West 6.9 mph - N/A   Scattered Clouds
11:30 AM 37.4 °F 31.4 °F 33.8 °F 87% 30.01 in 6.2 mi West 8.1 mph - N/A   Scattered Clouds
12:00 PM 37 °F - 34 °F 84% 30.05 in 25 mi West 6.7 mph - -   Partly Cloudy
12:00 PM 37.4 °F 32.8 °F 33.8 °F 87% 30.01 in 6.2 mi West 5.8 mph - N/A   Scattered Clouds
12:30 PM 37.4 °F 30.8 °F 33.8 °F 87% 30.01 in 6.2 mi West 9.2 mph - N/A   Mostly Cloudy
1:00 PM 39.2 °F 35.0 °F 33.8 °F 81% 30.01 in 6.2 mi NW 5.8 mph - N/A   Mostly Cloudy
3:00 PM 39.2 °F 34.2 °F 35.6 °F 87% 30.01 in 6.2 mi West 6.9 mph - N/A   Scattered Clouds
3:30 PM 37.4 °F 32.1 °F 35.6 °F 93% 30.01 in 6.2 mi West 6.9 mph - N/A   Mostly Cloudy
4:00 PM 37.4 °F 33.8 °F 35.6 °F 93% 30.01 in 6.2 mi West 4.6 mph - N/A   Mostly Cloudy
4:30 PM 35.6 °F 31.7 °F 33.8 °F 93% 30.01 in 6.2 mi WSW 4.6 mph - N/A   Mostly Cloudy
5:00 PM 35.6 °F 32.8 °F 33.8 °F 93% 30.01 in 6.2 mi West 3.5 mph - N/A   Mostly Cloudy
6:00 PM 35 °F - 34 °F 93% 30.06 in 25 mi WSW 4.5 mph - -   Scattered Clouds